STARLINK-11580

Satellite information

Favourite Embed

Satellite Type and Status

PAYLOADIN ORBIT

Key statistics

Satellite STARLINK-11580 at a glance.

Uptime

263

Days in orbit

Revolutions

≈ 15.7

Per day

Orbit

LEO

Low Earth Orbit

Inclination

43.0

Latest

Satellite identification and parameters

Extended collection of information and parameters for STARLINK-11580.

Object identification

Identified? True

Debris? False

Object name: STARLINK-11580

International designator: 2025-032G

Object number (NORAD): 63011

Object ID (CCSDS): 63011

Country: UNITED STATES OF AMERICA (US)

Current information (Y/N): Y

RCS size: LARGE

Orbital parameters

Period: 91.668 minutes

Inclination: 43.0009 deg

SMA: 6734.49 km

Apoapsis: 357.276 km

Periapsis: 355.434 km

RAAN: 227.9471 deg

Eccentricy: 0.0001367

Argument of periapsis: 255.3678 deg

Mean anomaly: 104.7038 deg

Mean motion: 15.7088967 rev/day

Mean motion (dot): 0.00282444 rev/day2

B* drag term: 0.0021263 1/REarth

Two-line elements (TLE)

Creation date: Nov. 5, 2025, 12:06 a.m.

Reference frame: TEME

Reference center: EARTH

Epoch: Nov. 4, 2025, 7:06 p.m. UTC

TLE line 0: 0 STARLINK-11580

TLE line 1: 1 63011U 25032G 25308.79626541 .00282444 00000-0 21263-2 0 9991

TLE line 2: 2 63011 43.0009 227.9471 0001367 255.3678 104.7038 15.70889670 42420

Live tracking on map

Real-time ground track for satellite STARLINK-11580.

In-orbit conjunctions

There are no conjunctions computed for STARLINK-11580, at the moment. Check back to stay up to date, as we update our databases every day.

Go to all conjunctions

Associated space launch

A batch of 21 satellites for the Starlink mega-constellation - SpaceX's project for space-based Internet communication system.

STARLINK-11580 was lifted into orbit during the mission ‘Falcon 9 Block 5 | Starlink Group 12-8’, on board a Falcon 9 space rocket.

The launch took place on Feb. 15, 2025, 6:14 a.m. from Space Launch Complex 40.

For more information about the launch, click the button.

Launch to space Falcon 9 Block 5 | Starlink Group 12-8
Falcon 9 Block 5 | Starlink Group 12-8

Agency: SpaceX

Status: Launch Successful

Launch date: Feb. 15, 2025, 6:14 a.m. UTC

Rocket: Falcon 9

Launch pad: Space Launch Complex 40

Location: Cape Canaveral SFS, FL, USA

...

Latest news about this satellite

News about space launch
Live coverage: SpaceX to launch 21 Starlink satellites on Falcon 9 rocket from Cape Canaveral

The Starlink 12-8 mission will be SpaceX’s 20 orbital launch of the year and send 21 Starlink satellites to low Earth orbit. Liftoff is set for 1:14 a.m. EST (0614 UTC).

News about space launch
Launch Roundup: Starlink and CZ-8A launches planned; Falcon booster to land in Bahamas

China will be conducting the debut flight of an upgraded version of the Chang Zheng… The post Launch Roundup: Starlink and CZ-8A launches planned; Falcon booster to land in Bahamas appeared first on NASASpaceFlight.com.


Newsletter sign-up

Weekly statistics, charts and insights to help you stay on top of the space industry.